Fayetteville, NC

3:07 PM EDT on July 21, 2017 (GMT -0400)
Fayetteville Regional-Grannis

Weather History for KFAY - May, 2012

Change the Weather History Date:

Sunday, May 20, 2012

  Actual Average Record
Temperature  
Mean Temperature 66 °F 72 °F  
Max Temperature 81 °F 83 °F 99 °F (1938)
Min Temperature 51 °F 60 °F 43 °F (2002)
Degree Days  
Heating Degree Days 0 0  
Month to date heating degree days 2 23  
Since 1 July heating degree days 2145 2730  
Cooling Degree Days 1 7  
Month to date cooling degree days 131 105  
Year to date cooling degree days 288 188  
Growing Degree Days 17 (Base 50)    
Moisture  
Dew Point 52 °F    
Average Humidity 57    
Maximum Humidity 87    
Minimum Humidity 27    
Precipitation  
Precipitation T in 0.11 in 2.18 in (1988)
Month to date precipitation 2.69 1.81  
Year to date precipitation 12.45 14.24  
Sea Level Pressure  
Sea Level Pressure 30.04 in    
Wind  
Wind Speed 7 mph (NNE)    
Max Wind Speed 22 mph    
Max Gust Speed 30 mph    
Visibility 10 miles    
Events      
T = Trace of Precipitation, MM = Missing Value Source: NWS Daily Summary

Daily Weather History Graph

Daily Weather History Graph

Search for Another Location

Airport or City:

Trip Planner

Search our weather history database for the weather conditions in past years. The results will help you decide how hot, cold, wet, or windy it might be!

Date:

Astronomy

May. 20, 2012 Rise Set
Actual Time 6:08 AM EDT 8:16 PM EDT
Civil Twilight 5:39 AM EDT 8:44 PM EDT
Nautical Twilight 5:05 AM EDT 9:19 PM EDT
Astronomical Twilight 4:27 AM EDT 9:57 PM EDT
Moon 5:47 AM EDT (5/20) 8:13 PM EDT (5/20)
Length of Visible Light 15h 05m
Length of Day
14h 08m
Waning Crescent, 0% of the Moon is Illuminated
May 20
Waning Crescent
May 20
New
May 28
First Quarter
Jun 4
Full
Jun 11
Last Quarter

Hourly Weather History & Observations

Time (EDT) Temp. Heat Index Dew Point Humidity Pressure Visibility Wind Dir Wind Speed Gust Speed Precip Events Conditions
12:53 AM 57.9 °F - 48.9 °F 72% 30.09 in 10.0 mi North 4.6 mph - N/A   Clear
1:53 AM 55.0 °F - 50.0 °F 83% 30.07 in 10.0 mi North 5.8 mph - N/A   Clear
2:53 AM 55.0 °F - 50.0 °F 83% 30.06 in 10.0 mi Calm Calm - N/A   Clear
3:53 AM 55.0 °F - 46.9 °F 74% 30.05 in 10.0 mi NNW 4.6 mph - N/A   Clear
4:53 AM 53.1 °F - 46.9 °F 80% 30.04 in 10.0 mi North 4.6 mph - N/A   Clear
5:53 AM 54.0 °F - 46.9 °F 77% 30.04 in 10.0 mi North 3.5 mph - N/A   Clear
6:53 AM 57.0 °F - 50.0 °F 77% 30.05 in 10.0 mi NNW 5.8 mph - N/A   Clear
7:53 AM 63.0 °F - 52.0 °F 67% 30.06 in 10.0 mi North 6.9 mph - N/A   Clear
8:53 AM 68.0 °F - 50.0 °F 52% 30.06 in 10.0 mi NNE 12.7 mph - N/A   Clear
9:53 AM 72.0 °F - 44.1 °F 37% 30.06 in 10.0 mi NE 10.4 mph 18.4 mph N/A   Clear
10:53 AM 75.9 °F - 39.0 °F 26% 30.06 in 10.0 mi NNE 12.7 mph - N/A   Overcast
11:02 AM 75.2 °F - 39.2 °F 27% 30.08 in 10.0 mi NNE 12.7 mph - N/A   Scattered Clouds
11:53 AM 78.1 °F - 42.1 °F 28% 30.06 in 10.0 mi NE 18.4 mph 25.3 mph N/A   Scattered Clouds
12:53 PM 80.1 °F - 46.9 °F 31% 30.05 in 10.0 mi North 13.8 mph 20.7 mph N/A   Overcast
1:53 PM 81.0 °F - 51.1 °F 35% 30.04 in 10.0 mi NNE 16.1 mph 24.2 mph N/A   Overcast
2:53 PM 80.1 °F 80.1 °F 55.0 °F 42% 30.03 in 10.0 mi NE 11.5 mph - N/A   Overcast
3:53 PM 80.1 °F 80.0 °F 54.0 °F 40% 30.01 in 10.0 mi NNE 9.2 mph - N/A   Overcast
4:53 PM 78.1 °F - 57.0 °F 48% 30.01 in 10.0 mi NE 6.9 mph - N/A   Overcast
5:53 PM 78.1 °F - 57.0 °F 48% 30.01 in 10.0 mi NE 4.6 mph - N/A   Overcast
6:53 PM 73.9 °F - 61.0 °F 64% 30.01 in 10.0 mi East 8.1 mph - N/A   Overcast
7:53 PM 72.0 °F - 63.0 °F 73% 30.01 in 10.0 mi Calm Calm - 0.00 in   Overcast
8:53 PM 71.1 °F - 63.0 °F 75% 30.01 in 10.0 mi Calm Calm - N/A   Overcast
9:53 PM 69.1 °F - 64.9 °F 87% 30.03 in 10.0 mi East 4.6 mph - N/A   Overcast
10:53 PM 69.1 °F - 64.9 °F 87% 30.03 in 10.0 mi ENE 3.5 mph - N/A   Overcast
11:53 PM 68.0 °F - 64.0 °F 87% 30.02 in 10.0 mi ENE 5.8 mph - N/A   Overcast